Weather History for Port Alberni, BC

Change the Weather History Date:

Sunday, October 27, 2013

  Actual Average Record
Temperature  
Mean Temperature 53 °F -  
Max Temperature 67 °F - - ()
Min Temperature 39 °F - - ()
Degree Days  
Heating Degree Days 12    
Growing Degree Days 3 (Base 50)    
Moisture  
Dew Point 36 °F    
Average Humidity 58    
Maximum Humidity 98    
Minimum Humidity 14    
Precipitation  
Precipitation 0.01 in - - ()
Sea Level Pressure  
Sea Level Pressure 30.05 in    
Wind  
Wind Speed 4 mph ()    
Max Wind Speed 15 mph    
Max Gust Speed 20 mph    
T = Trace of Precipitation, MM = Missing Value Source: Averaged Metar Reports

Daily Weather History Graph

Daily Weather History Graph

Search for Another Location

Airport:

Trip Planner

Search our weather history database for the weather conditions in past years. The results will help you decide how hot, cold, wet, or windy it might be!

Date:

Astronomy

Oct. 27, 2013 Rise Set
Actual Time 8:00 AM PDT 6:06 PM PDT
Civil Twilight 7:27 AM PDT 6:39 PM PDT
Nautical Twilight 6:49 AM PDT 7:16 PM PDT
Astronomical Twilight 6:12 AM PDT 7:53 PM PDT
Moon 12:27 AM PDT (10/27) 2:50 PM PDT (10/27)
Length of Visible Light 11h 11m
Length of Day
10h 05m
Last Quarter, 42% of the Moon is Illuminated
Oct 27
Last Quarter
Nov 3
New
Nov 9
First Quarter
Nov 17
Full
Nov 25
Last Quarter

Hourly Weather History & Observations

Time (PDT) Temp. Windchill Dew Point Humidity Pressure Visibility Wind Dir Wind Speed Gust Speed Precip Events Conditions
12:00 AM 48.9 °F - 46.9 °F 93% 30.18 in - ESE 1.2 mph - N/A   Unknown
1:00 AM 48.7 °F - 46.8 °F 93% 30.17 in - Calm Calm - N/A   Unknown
2:00 AM 48.7 °F - 47.1 °F 94% 30.13 in - North 2.3 mph - N/A   Unknown
3:00 AM 48.6 °F - 46.6 °F 93% 30.09 in - SSW 1.2 mph - N/A   Unknown
4:00 AM 48.4 °F - 46.4 °F 93% 30.05 in - Calm Calm - N/A   Unknown
5:00 AM 45 °F - 43 °F 92% 30.05 in - East 3.5 mph - -  
5:00 AM 44.8 °F 42.4 °F 43.5 °F 95% 30.05 in - ESE 4.6 mph - N/A   Unknown
6:00 AM 42.4 °F - 41.4 °F 96% 30.04 in - NNW 2.3 mph - N/A   Unknown
7:00 AM 41.5 °F - 40.8 °F 97% 30.04 in - NW 2.3 mph - N/A   Unknown
8:00 AM 39.7 °F - 39.0 °F 97% 30.03 in - East 2.3 mph - N/A   Unknown
9:00 AM 41.4 °F 39.4 °F 40.8 °F 98% 30.04 in - South 3.5 mph - N/A   Unknown
10:00 AM 47.8 °F - 47.3 °F 98% 30.05 in - SE 2.3 mph - N/A   Unknown
11:00 AM 55.2 °F - 46.2 °F 72% 30.04 in - SE 5.8 mph - N/A   Unknown
12:00 PM 61.5 °F - 43.5 °F 52% 30.02 in - SE 6.9 mph - N/A   Unknown
1:00 PM 66.7 °F - 29.8 °F 25% 30.00 in - North 11.5 mph 19.6 mph 0.01 in   Unknown
2:00 PM 67.3 °F - 28.0 °F 23% 29.98 in - North 13.8 mph - N/A   Unknown
3:00 PM 67.5 °F - 27.5 °F 22% 29.99 in - NNW 12.7 mph 19.6 mph N/A   Unknown
4:00 PM 66.9 °F - 28.2 °F 23% 30.00 in - NW 9.2 mph 19.6 mph N/A   Unknown
5:00 PM 65 °F - 27 °F 14% 30.01 in - West 10.4 mph - -  
5:00 PM 65.3 °F - 27.5 °F 24% 30.01 in - West 11.5 mph 17.3 mph N/A   Unknown
6:00 PM 61.7 °F - 28.0 °F 28% 30.02 in - WNW 9.2 mph - N/A   Unknown
7:00 PM 60.1 °F - 27.1 °F 29% 30.03 in - West 6.9 mph - N/A   Unknown
8:00 PM 59.4 °F - 26.8 °F 29% 30.04 in - NW 8.1 mph - N/A   Unknown
9:00 PM 60.3 °F - 23.7 °F 25% 30.05 in - WNW 10.4 mph - N/A   Unknown
10:00 PM 59.0 °F - 23.9 °F 26% 30.06 in - NNW 15.0 mph - N/A   Unknown
11:00 PM 57 °F - 24 °F 16% 30.06 in - NNW 10.4 mph - -  
11:00 PM 56.7 °F - 23.7 °F 28% 30.06 in - NW 9.2 mph - N/A   Unknown